EDT,Max TemperatureF,Mean TemperatureF,Min TemperatureF,Max Dew PointF,MeanDew PointF,Min DewpointF,Max Humidity, Mean Humidity, Min Humidity, Max Sea Level PressureIn, Mean Sea Level PressureIn, Min Sea Level PressureIn, Max VisibilityMiles, Mean VisibilityMiles, Min VisibilityMiles, Max Wind SpeedMPH, Mean Wind SpeedMPH, Max Gust SpeedMPH,PrecipitationIn, CloudCover, Events, WindDirDegrees
2013-3-1,33,30,26,27,22,17,82,72,64,30.16,30.05,29.96,10,10,10,15,9,,0.00,8,,24
2013-3-2,32,28,24,20,18,16,75,67,59,30.14,30.11,30.07,10,10,10,14,8,,0.00,7,,336
2013-3-3,32,26,19,18,16,13,78,66,52,30.12,30.09,30.06,10,10,10,13,8,22,0.00,5,,325
2013-3-4,36,26,17,23,17,12,89,69,48,30.17,30.12,30.06,10,10,8,8,2,,0.00,3,,87
2013-3-5,33,30,27,27,25,21,93,83,64,30.06,29.83,29.74,10,2,0,22,13,31,0.20,8,Fog-Snow,61
2013-3-6,35,30,26,28,25,22,93,78,67,30.26,30.07,29.83,10,8,1,18,13,25,0.01,8,Snow,339
2013-3-7,36,28,21,29,25,18,96,77,57,30.43,30.34,30.22,10,10,10,12,6,,0.00,7,,314
2013-3-8,39,26,14,23,15,9,93,76,46,30.52,30.46,30.41,10,4,0,5,0,,0.00,1,Fog,91
2013-3-9,42,33,25,32,26,18,75,69,57,30.40,30.20,29.97,10,10,10,16,8,,0.00,3,Rain,134
2013-3-10,57,48,39,42,37,31,77,61,53,29.95,29.84,29.71,10,10,9,17,9,,0.04,5,Rain,149
2013-3-11,54,45,34,48,41,29,94,85,53,29.77,29.63,29.54,10,8,2,24,13,32,0.14,8,Rain,209
2013-3-12,36,33,30,30,27,23,93,80,60,29.96,29.90,29.76,10,7,0,21,15,25,0.02,8,Fog-Snow,249
2013-3-13,28,26,21,27,20,12,88,77,56,30.32,30.07,29.94,10,4,0,20,15,29,0.00,7,Fog-Snow,283
2013-3-14,41,31,21,27,19,13,78,65,45,30.33,30.26,30.14,10,10,9,10,7,,0.00,1,,241
2013-3-15,46,38,30,40,34,27,93,84,63,30.13,29.92,29.78,10,5,1,14,6,,0.11,5,Rain,232
2013-3-16,39,34,28,39,32,21,100,86,69,30.10,29.82,29.64,10,5,0,14,8,,0.00,8,Fog,25
2013-3-17,37,32,28,22,20,18,75,64,48,30.23,30.15,30.08,10,10,10,20,9,28,0.00,5,,56
2013-3-18,35,32,28,34,28,20,93,85,69,30.06,29.72,29.58,10,5,1,29,14,37,0.01,7,Rain-Snow,155
2013-3-19,36,28,21,19,14,12,74,60,42,30.05,29.89,29.77,10,10,6,26,23,40,0.00,6,Snow,254
2013-3-20,28,22,17,16,12,6,86,66,47,30.04,30.01,29.99,10,8,1,20,14,30,0.00,7,Snow,291
2013-3-21,32,24,15,19,15,10,86,74,52,30.04,29.98,29.93,10,8,2,18,10,25,0.00,6,Snow,272
2013-3-22,41,28,18,20,16,12,81,60,36,30.08,30.04,30.00,10,10,8,14,6,21,0.00,0,,286
2013-3-23,39,30,21,22,20,18,85,67,46,30.14,30.08,30.01,10,10,7,13,4,18,0.00,1,,2
2013-3-24,37,32,27,25,22,21,78,67,52,30.01,29.79,29.59,10,10,8,23,12,31,0.00,6,Snow,56
2013-3-25,36,32,28,29,26,21,93,80,62,29.99,29.68,29.56,10,5,0,18,14,25,0.02,8,Fog-Snow,356
2013-3-26,39,34,30,28,27,24,82,73,55,30.22,30.12,30.00,10,10,9,18,10,,0.00,8,,310
2013-3-27,43,35,28,30,25,18,89,68,41,30.31,30.26,30.21,10,9,6,17,9,23,0.00,6,,295
2013-3-28,50,38,26,26,20,17,75,54,32,30.34,30.31,30.28,10,10,10,12,5,22,0.00,0,,279
2013-3-29,53,38,24,25,20,16,82,53,25,30.33,30.29,30.24,10,10,8,13,2,23,0.00,0,Rain,327
2013-3-30,55,40,25,32,26,19,85,59,35,30.25,30.12,29.93,10,10,8,13,3,21,0.00,0,,190
2013-3-31,63,50,37,43,36,26,93,65,30,29.90,29.76,29.68,10,8,1,22,10,31,0.00,6,,255